RH
20 17 13 10 8 7 7 8 9 9 9 10 12 14 16 18 20 21 24 23 22 20 19 16 15 16 17 17 16 15 14 13 12 11 10 10 10 11 12 13 14 15 17 19 22 25 28 31 33 36 39 42 46 51 55 60 64 67 68 69 69 69 70 71 71 71 71 69 66 63 59 57 55 54 52 50 47 44 40 38 38 39 40 41 43 46 49 51 51 49 45 43 41 40 39 41 41 39 37 38 38 39 40
19 16 11 9 8 7 7 8 8 9 9 9 10 12 15 15 18 21 23 23 22 21 19 17 16 16 16 16 15 15 14 14 13 12 9 8 8 9 9 11 12 13 14 15 17 19 22 25 28 32 35 39 43 47 51 55 60 63 67 68 68 68 68 69 70 71 71 71 70 67 63 61 59 57 55 53 50 46 43 39 38 37 39 40 41 42 44 48 50 50 48 45 43 41 40 43 44 42 38 38 38 38 38
15 12 9 8 7 7 7 8 9 9 9 9 10 11 13 14 18 21 22 22 21 20 19 18 17 16 15 15 14 14 14 14 13 11 9 7 6 7 7 8 10 11 13 13 14 15 17 20 23 26 30 35 40 44 48 52 56 60 63 66 68 69 68 68 68 69 71 71 71 70 66 63 62 60 58 56 53 51 49 45 41 38 37 39 39 40 41 44 47 49 49 48 46 44 42 45 46 45 40 38 39 40 39
9 7 6 6 6 7 7 8 9 10 10 9 9 10 12 15 19 21 21 20 18 17 16 16 16 16 16 15 14 13 13 13 12 9 7 6 6 6 6 7 8 9 10 11 12 13 14 16 18 20 24 29 35 40 45 49 53 57 60 63 66 69 70 68 67 67 69 71 72 72 70 66 63 62 61 59 57 56 54 51 47 43 39 38 38 39 39 40 43 46 48 48 48 46 45 47 49 49 43 38 38 41 42
5 5 5 5 6 6 6 7 8 9 9 9 9 11 14 17 19 20 19 16 15 14 13 14 14 15 16 15 14 13 12 12 10 7 6 6 6 6 6 6 6 7 8 9 10 11 12 13 14 16 19 23 28 34 40 45 50 54 58 61 64 67 70 69 68 67 67 68 70 72 72 69 65 62 61 60 59 57 56 54 52 50 46 41 39 38 37 38 40 42 45 47 48 48 46 48 51 52 47 40 38 40 44
5 5 5 5 5 5 5 6 7 7 8 8 9 11 15 18 19 18 15 13 12 12 12 12 13 14 14 15 14 13 12 10 8 6 6 6 5 6 6 6 6 6 6 7 8 9 10 12 13 14 16 18 23 28 34 40 46 51 56 59 62 64 67 69 69 68 67 67 68 69 71 70 67 64 61 60 57 55 55 55 54 53 52 47 42 38 36 36 37 39 42 44 46 48 48 48 51 53 51 44 40 39 42
4 4 4 5 5 5 5 5 6 6 6 7 7 10 14 17 17 15 12 11 11 11 11 11 12 13 13 14 14 13 12 10 8 6 6 6 6 6 6 6 6 6 6 6 7 7 8 10 11 12 14 16 19 23 28 34 40 46 52 56 59 62 64 66 68 69 68 68 67 68 69 69 69 66 63 60 56 53 53 55 56 55 54 53 49 43 38 36 35 36 38 41 44 46 50 49 50 52 54 48 43 40 40
4 4 4 4 4 5 5 5 5 5 5 6 6 8 12 14 14 12 10 9 9 9 9 10 11 12 12 12 13 12 11 8 7 7 7 7 6 6 6 6 6 6 6 6 6 7 7 8 9 11 12 14 17 20 24 28 34 40 46 52 56 59 61 63 65 67 69 69 69 69 68 68 68 67 65 61 58 56 54 55 55 56 55 55 53 50 45 39 36 35 36 38 41 45 50 50 50 51 55 53 48 42 40
4 4 4 4 4 4 4 4 4 5 5 5 5 7 9 10 10 8 7 7 7 7 8 9 10 10 11 11 11 11 9 8 7 8 8 7 7 7 6 6 6 6 6 6 6 6 7 7 8 9 11 12 15 17 20 25 29 34 40 47 52 56 59 61 64 66 67 69 70 70 70 69 68 68 67 64 61 58 57 55 55 55 56 56 55 54 51 46 41 37 35 37 40 43 49 51 50 50 53 55 52 47 42
4 4 4 4 4 4 4 4 4 5 5 5 5 6 6 7 7 6 6 6 6 6 7 8 8 9 10 10 10 9 8 8 8 8 8 8 8 7 7 7 6 6 6 6 6 6 6 7 7 8 9 11 12 15 18 22 26 30 35 41 47 52 56 59 62 64 66 68 69 70 70 70 70 69 69 66 63 61 59 59 57 56 56 56 56 55 54 51 47 42 39 38 39 41 46 50 51 51 50 52 52 49 46
5 5 5 5 5 5 5 5 5 5 5 5 5 5 5 6 5 5 5 5 5 6 6 6 7 7 8 8 8 9 9 8 8 8 8 8 8 8 8 7 7 6 6 6 6 6 6 7 7 8 8 10 11 13 15 19 24 28 32 37 42 46 51 56 59 62 64 66 68 69 70 70 70 70 70 69 67 64 61 61 60 58 57 57 57 56 55 53 50 47 45 43 41 41 43 47 50 52 52 51 50 50 50
6 6 6 6 6 6 6 6 6 6 6 6 6 6 6 6 5 6 6 6 6 6 6 6 6 6 6 7 7 8 8 9 9 9 9 9 8 8 8 8 7 7 7 6 6 6 6 6 7 7 8 9 10 12 14 17 22 27 32 36 39 42 46 51 55 59 62 65 66 68 69 70 71 71 71 71 70 68 64 62 60 59 59 59 58 58 56 54 51 49 49 47 45 43 43 45 49 52 55 54 53 52 53
7 7 6 7 7 6 6 7 6 6 6 6 6 6 6 6 6 6 6 6 6 6 6 6 6 6 6 6 7 7 8 8 9 9 9 9 9 9 8 8 8 8 7 7 7 7 7 7 7 7 8 9 10 11 13 15 20 25 31 35 37 39 41 45 50 55 59 62 65 66 67 69 70 71 72 72 72 71 68 64 62 60 60 60 59 59 58 55 53 51 49 49 48 46 45 45 48 51 55 57 57 56 54
7 7 7 7 7 7 7 7 7 7 7 7 7 7 7 7 7 7 6 6 6 6 6 6 6 6 6 6 6 7 7 8 8 9 9 9 9 9 9 8 8 8 8 8 7 7 7 7 7 7 7 8 9 10 12 14 18 23 29 34 37 38 38 41 45 50 55 59 62 64 66 67 69 70 72 73 73 73 72 69 66 63 61 60 60 60 60 58 55 53 51 50 49 48 47 47 47 49 53 56 58 58 56
8 8 8 8 8 8 8 8 8 8 8 8 8 8 7 7 7 7 7 7 7 7 7 7 6 6 6 6 6 6 7 7 7 8 8 9 9 9 9 9 9 9 8 8 8 8 8 7 7 7 7 7 8 10 11 13 16 20 27 33 36 37 37 39 41 45 50 54 59 62 64 65 67 69 71 72 73 74 74 73 71 67 64 63 62 61 61 60 58 56 54 52 50 48 48 48 48 49 51 53 56 57 57
8 8 8 8 8 8 8 8 8 8 8 8 8 8 8 8 7 7 7 7 7 7 7 7 7 7 7 6 6 6 6 6 7 7 8 8 9 9 9 9 9 9 9 8 8 8 8 8 8 8 7 7 8 9 11 13 15 18 24 31 34 36 37 37 39 41 45 49 54 59 62 64 65 67 69 70 71 73 74 75 74 72 68 66 64 62 61 61 59 58 58 56 54 52 50 49 49 49 50 51 53 55 56
8 8 8 8 8 8 8 8 8 8 8 8 8 8 8 8 8 7 7 7 7 7 7 7 7 7 7 7 7 7 7 6 6 7 7 7 8 8 8 9 9 9 9 9 8 8 8 8 8 8 8 8 8 9 10 12 14 17 22 28 32 35 36 37 38 39 41 45 49 54 58 61 63 65 67 68 69 71 72 74 75 74 72 69 66 64 62 61 60 60 60 60 58 56 53 52 51 50 50 50 52 54 56
8 8 8 8 8 8 8 8 8 8 8 8 8 8 8 8 7 7 7 7 7 7 7 7 7 7 7 7 7 7 7 6 6 6 6 7 7 7 8 8 8 9 9 9 8 8 8 9 9 9 8 8 8 8 9 11 13 16 19 25 29 33 35 36 37 38 40 42 46 49 53 57 60 63 65 67 68 68 70 72 74 75 75 72 69 66 63 62 61 60 60 61 61 60 57 56 54 53 52 51 51 53 56
8 8 8 8 8 8 8 8 8 8 8 8 8 8 8 7 7 7 7 7 7 7 7 7 7 7 7 7 7 7 7 7 6 6 6 6 6 7 7 7 8 8 8 8 8 8 8 9 9 9 9 9 8 8 9 10 12 15 17 21 25 30 34 35 36 37 39 41 43 45 49 53 56 60 63 65 66 67 67 69 72 75 77 76 72 69 66 64 62 61 61 61 61 61 60 59 58 57 55 53 52 53 55
7 7 7 7 7 7 7 7 7 7 7 7 7 7 7 7 7 7 7 7 7 7 7 7 7 7 7 7 7 7 7 7 7 7 6 6 6 6 6 6 7 7 7 8 8 8 8 8 9 9 9 9 9 9 9 10 12 14 16 19 22 25 30 34 36 37 37 39 41 43 45 48 52 56 60 63 64 65 66 67 69 73 77 78 76 73 69 67 64 62 62 62 62 62 62 61 60 60 59 57 54 53 55
7 7 7 7 7 7 7 7 7 7 7 7 7 7 7 7 7 7 7 7 7 7 7 7 7 7 7 7 7 6 7 7 7 6 6 6 6 6 6 6 6 6 6 7 7 8 8 8 8 9 9 9 9 9 9 9 11 13 15 18 20 22 26 31 34 36 37 38 39 41 43 46 49 52 56 60 62 64 64 65 67 70 75 78 79 77 73 70 66 64 63 63 63 63 63 62 62 63 63 60 58 55 55
8 8 8 8 8 8 8 7 7 7 7 7 7 7 7 7 7 7 6 6 6 6 6 6 6 6 6 6 6 6 6 6 6 6 6 6 6 6 6 6 6 6 6 6 7 7 7 8 8 8 9 9 9 9 9 9 10 12 14 17 19 21 24 28 32 35 36 37 38 40 42 44 46 49 52 57 60 62 63 63 64 67 71 75 78 79 77 73 70 67 65 64 64 64 64 64 64 65 66 64 61 58 56
8 8 8 8 8 8 8 8 7 7 7 7 7 7 7 7 6 6 6 6 6 6 6 6 6 6 6 6 6 6 6 6 6 6 6 6 6 6 6 6 6 6 6 6 6 6 7 7 7 8 8 8 9 9 10 10 10 11 12 15 18 20 23 26 30 33 35 36 37 38 40 43 45 47 49 53 57 60 62 62 62 63 66 72 76 79 79 76 74 71 69 67 66 65 65 65 65 66 67 67 65 61 58
8 8 8 8 8 8 8 8 7 7 7 7 7 7 7 7 6 6 6 6 6 6 6 6 6 6 6 6 6 5 6 6 6 6 6 6 6 6 6 6 6 6 6 6 6 6 6 6 7 7 8 8 8 9 9 10 10 10 11 13 16 18 21 25 28 31 34 35 36 37 39 41 43 45 47 50 54 58 61 61 61 62 63 68 73 78 81 79 77 74 72 70 69 68 67 66 66 66 68 69 68 65 61
8 8 8 8 8 8 8 8 7 7 7 7 7 7 6 6 6 6 6 6 6 6 6 6 6 6 6 6 5 5 5 5 5 5 6 6 6 5 5 5 5 5 6 6 6 6 6 6 6 7 7 7 8 8 9 9 10 10 11 12 14 16 19 21 25 28 32 33 34 35 37 39 42 44 46 48 51 54 58 60 60 60 60 64 69 76 81 81 79 76 74 72 71 71 70 68 67 67 68 70 70 68 66
9 8 8 8 8 8 8 8 7 7 7 7 7 7 6 6 6 6 6 6 6 6 6 6 6 6 6 5 5 5 5 5 5 5 5 5 5 5 5 5 5 5 5 6 6 6 6 6 6 6 6 7 7 7 8 9 9 10 11 11 13 15 17 19 21 24 27 29 31 32 34 37 40 42 45 46 49 51 55 58 59 59 58 60 65 72 79 81 81 79 76 74 72 72 72 71 69 68 69 70 71 70 69
9 8 8 8 8 8 8 8 7 7 7 7 7 7 6 6 6 6 6 6 6 6 6 6 6 6 6 5 5 5 5 5 5 5 5 5 5 5 5 5 5 5 5 5 5 6 6 6 6 6 6 6 7 7 7 8 9 10 10 11 12 14 16 18 20 21 23 26 28 30 32 34 37 40 43 45 47 49 52 55 57 59 59 59 62 67 74 79 81 80 78 75 73 72 72 72 72 71 70 71 72 72 71
9 8 8 8 8 8 7 8 7 7 7 7 7 7 6 6 6 6 6 6 6 6 6 6 6 5 5 6 5 5 5 5 5 5 5 5 5 5 5 4 4 4 4 5 5 5 5 6 6 6 6 6 6 7 6 7 8 9 10 10 11 13 15 18 19 21 21 23 25 28 30 32 35 38 41 43 45 47 50 53 55 58 59 59 60 63 68 75 79 81 80 77 75 73 72 73 73 73 72 72 73 73 73
8 8 8 8 8 8 8 8 7 7 7 7 7 6 6 6 6 6 6 6 6 6 6 6 6 6 6 5 5 5 5 5 4 5 5 5 5 5 5 5 4 4 4 4 4 5 5 5 6 6 6 6 7 7 6 6 7 8 9 10 10 12 13 16 19 20 21 22 24 26 28 30 33 35 38 41 44 46 48 51 53 56 58 59 59 60 63 69 75 79 81 79 77 75 73 73 74 75 74 74 74 75 75
8 8 8 8 8 8 7 7 7 7 7 7 7 6 6 6 6 6 6 6 6 6 6 6 6 6 5 5 5 5 5 5 4 4 4 4 5 5 5 5 5 4 4 4 4 4 4 5 5 6 6 7 7 7 7 6 6 7 7 9 10 11 12 14 17 20 21 21 23 24 28 29 32 34 36 38 41 44 47 49 51 54 56 58 58 58 59 63 69 75 79 80 79 76 75 75 75 76 76 75 76 76 76
8 8 8 8 8 8 7 7 7 7 7 7 7 6 6 6 6 6 6 6 6 6 6 6 6 6 6 5 5 5 5 5 4 4 4 4 4 5 5 5 5 4 4 4 4 4 4 4 4 5 6 6 7 7 7 7 6 6 6 7 8 10 11 13 16 18 21 22 22 23 25 28 31 33 35 37 39 42 45 47 50 52 54 56 57 57 57 59 64 69 75 78 79 78 76 76 76 77 77 77 78 78 78
9 8 8 8 8 8 8 8 8 8 7 7 7 7 6 6 6 6 6 6 6 6 6 6 6 6 6 5 5 5 5 5 5 4 4 4 4 4 5 5 4 4 4 4 3 4 3 4 4 4 5 6 7 7 7 7 7 6 6 6 7 8 10 11 14 16 20 22 23 23 24 26 29 33 35 36 37 40 42 45 48 50 52 55 57 58 57 57 59 63 70 75 78 78 78 77 77 77 78 78 79 80 80
9 9 8 8 8 8 8 8 8 8 8 7 7 7 7 7 6 7 7 6 6 6 6 6 6 6 6 6 5 5 6 6 5 5 4 4 4 4 4 4 4 4 4 4 4 3 3 3 3 4 4 5 6 7 8 8 7 7 6 6 7 7 9 10 12 14 18 21 23 23 23 24 27 30 32 33 35 37 40 43 46 49 51 54 56 57 57 56 56 59 64 70 75 78 78 78 78 78 78 79 79 81 82
9 9 9 8 8 8 8 8 8 8 8 7 7 7 7 7 7 7 7 7 7 7 7 6 6 6 6 6 6 6 6 6 6 5 4 4 4 4 4 4 4 4 5 4 4 4 3 3 3 4 4 5 6 7 7 8 8 8 7 7 7 7 8 9 10 12 15 19 22 24 24 24 25 26 28 29 31 33 38 41 44 47 50 52 54 56 57 56 56 56 59 65 71 75 78 78 79 79 79 79 80 81 82
10 9 9 9 9 9 8 8 9 8 8 8 8 8 8 8 8 8 7 7 7 7 7 7 7 7 7 6 6 6 6 7 7 6 5 4 4 4 4 4 4 5 4 4 4 4 3 3 4 4 4 4 5 6 7 8 8 8 8 7 7 7 7 8 9 11 13 17 20 23 25 24 24 25 26 26 27 29 33 38 42 45 48 51 53 55 57 56 56 56 56 61 66 71 76 78 79 80 80 80 80 81 82
10 10 9 9 9 9 9 9 9 9 8 8 8 8 8 8 8 8 8 8 8 7 7 7 7 7 7 7 7 6 7 7 7 6 6 5 4 4 4 4 5 5 4 4 4 4 3 3 3 4 4 4 5 6 7 8 9 9 9 9 8 8 8 8 9 10 11 14 18 22 25 25 25 25 25 25 26 27 28 33 38 43 46 49 52 54 56 57 56 56 55 58 61 67 72 76 79 80 81 81 81 81 82
10 10 10 9 9 9 9 10 10 9 9 9 9 9 9 9 9 9 8 8 8 8 8 8 7 7 7 7 7 7 8 7 7 6 6 5 5 5 5 5 5 5 4 4 4 4 4 3 4 4 4 4 5 5 6 8 9 10 10 10 9 9 9 9 9 9 10 12 15 19 23 25 25 25 25 26 26 27 27 30 34 39 44 47 50 53 56 56 57 56 55 55 58 62 68 74 78 80 81 82 82 82 82
11 10 10 10 10 10 10 10 10 10 10 10 10 10 10 9 9 9 9 8 8 8 8 8 8 8 7 8 8 9 9 8 8 7 6 6 5 5 5 5 5 4 4 4 4 4 3 3 4 4 4 5 5 6 6 8 9 11 12 11 11 11 10 11 10 10 10 11 13 16 21 24 26 26 26 26 27 28 28 29 32 36 41 45 49 52 54 56 56 56 55 54 56 59 64 70 75 79 80 81 82 82 82
11 11 11 10 11 11 11 11 11 11 11 10 10 10 10 10 9 9 9 8 8 8 8 8 8 8 8 9 9 10 9 9 8 8 7 7 6 5 5 5 5 5 4 4 4 4 3 3 4 4 5 5 6 6 7 8 9 11 13 13 13 13 12 12 12 11 11 11 12 14 18 22 25 27 26 26 27 28 29 30 32 34 39 43 46 49 52 55 56 56 56 55 54 56 60 67 73 77 80 81 81 82 82
12 11 11 11 11 11 12 12 12 11 11 11 11 10 10 10 10 9 9 9 8 8 8 8 8 9 10 10 11 10 10 9 8 8 7 7 7 6 5 5 5 5 5 4 4 4 3 4 4 4 5 6 6 7 7 9 10 12 13 14 14 14 14 14 13 13 12 12 12 13 15 20 24 26 27 27 27 28 30 31 33 34 38 42 45 47 50 53 55 56 57 56 55 55 57 63 69 75 79 80 81 81 81
12 12 12 12 12 12 12 12 12 12 12 11 11 11 10 10 10 9 9 9 9 8 8 9 10 11 13 12 12 11 10 9 8 8 8 7 7 6 6 6 5 5 5 4 4 4 4 4 4 5 6 6 7 8 9 10 11 12 13 14 14 15 15 15 15 14 14 13 12 13 14 17 21 25 28 28 28 28 29 31 33 36 40 42 44 45 48 51 54 56 57 57 55 55 55 59 65 71 76 79 81 81 81
13 13 13 13 13 13 13 13 12 12 12 11 11 11 11 10 10 10 10 9 9 9 9 9 11 13 15 14 13 12 10 9 9 8 8 7 7 7 6 6 5 5 5 5 4 4 4 4 5 6 6 7 8 9 11 12 12 13 13 14 14 15 15 15 15 15 15 14 14 13 13 16 19 23 27 28 29 29 29 31 34 38 42 43 43 43 46 49 53 55 57 57 56 55 54 56 60 66 72 77 80 81 81
14 14 14 14 13 13 13 13 13 12 12 12 12 11 11 11 11 11 11 10 10 10 9 11 13 15 16 15 14 12 11 9 9 8 8 7 7 6 6 6 6 5 5 5 5 5 5 5 6 6 7 9 10 11 12 13 13 13 13 14 14 14 15 16 16 16 16 15 15 14 14 16 18 22 26 29 29 30 30 32 37 42 45 44 43 42 43 47 51 54 56 56 55 54 53 53 56 60 66 74 78 80 81
15 15 15 14 14 14 14 13 13 13 12 12 12 12 12 12 12 12 12 11 11 11 11 13 15 16 16 15 14 12 11 10 9 9 8 7 7 6 6 6 6 6 5 5 5 5 5 6 6 7 9 11 12 13 14 14 14 14 14 14 14 14 15 16 17 16 16 16 15 15 16 16 18 21 25 28 30 31 31 34 40 46 50 48 45 43 42 45 48 52 55 55 55 54 52 52 53 56 61 68 74 79 81
16 16 16 15 15 15 14 14 14 13 13 13 13 13 13 13 13 13 13 12 12 13 15 16 17 17 17 15 14 12 12 11 10 9 9 8 7 6 6 6 6 6 6 5 5 6 6 7 7 8 11 13 15 15 15 15 15 14 14 14 14 15 15 16 16 16 16 16 16 16 17 17 19 21 23 27 31 33 33 34 40 47 52 52 49 46 42 43 46 50 53 54 55 54 53 52 51 53 57 63 69 74 78
17 17 17 17 16 15 15 15 14 14 14 14 13 14 14 14 14 14 14 14 14 15 18 18 18 18 16 15 14 13 12 12 11 10 9 9 8 7 7 7 7 6 6 6 6 6 6 7 9 10 13 16 17 16 16 15 15 14 13 13 14 14 15 16 16 16 16 16 16 17 18 19 20 21 23 27 31 34 35 34 39 46 52 52 51 47 42 41 43 47 51 54 55 54 53 51 51 51 53 58 63 69 75
18 18 18 18 18 17 17 16 15 15 14 14 14 14 15 15 15 15 15 15 17 18 20 21 20 19 17 15 15 14 13 13 12 11 10 9 9 9 8 8 7 7 6 6 6 7 7 8 10 12 16 17 17 16 16 15 14 13 13 13 14 14 15 15 16 16 16 16 17 17 19 20 21 22 23 26 31 34 35 35 38 45 52 53 51 48 45 41 42 44 49 52 54 54 53 51 50 49 50 53 58 64 71
20 20 20 20 20 19 19 18 17 17 16 15 15 15 16 16 16 16 16 18 19 21 23 23 23 21 19 17 16 16 15 14 14 13 12 11 10 10 10 9 8 7 7 7 8 8 9 9 11 14 18 18 17 16 16 15 14 13 14 14 14 14 14 15 15 15 16 16 17 18 19 21 21 21 22 25 28 33 36 36 38 44 51 53 53 51 48 44 43 44 47 51 53 54 53 51 50 48 48 50 54 60 66
21 22 22 22 22 22 21 21 20 19 18 17 16 16 17 17 17 17 18 19 22 24 26 25 25 23 21 20 19 18 18 16 15 14 14 15 15 13 11 10 9 9 9 10 11 10 10 10 13 16 19 18 17 16 15 14 13 13 14 14 14 14 15 14 14 15 15 16 17 18 19 20 21 21 22 23 26 30 34 35 38 43 50 54 54 53 51 48 46 45 46 49 51 53 52 51 50 48 47 48 51 55 62
23 23 23 24 24 24 24 24 23 22 21 20 19 18 18 18 18 18 19 21 24 27 28 27 26 25 25 23 22 21 20 19 18 17 17 19 20 20 16 13 12 12 13 14 13 12 11 12 14 17 19 18 17 16 15 13 13 14 15 15 16 16 15 14 14 14 14 15 16 17 18 20 20 21 21 21 23 26 30 33 37 41 49 53 55 55 54 52 50 47 46 48 49 51 51 50 49 48 47 47 49 52 57
23 24 24 25 25 25 26 26 25 25 24 23 22 21 20 20 19 20 21 23 26 28 29 28 27 26 27 26 25 24 23 22 21 21 23 22 23 23 22 21 20 18 17 15 14 13 13 14 15 17 18 17 16 14 13 13 14 15 17 18 18 17 16 14 14 13 14 15 16 17 18 19 19 20 20 19 20 22 26 31 35 40 46 52 56 58 58 56 54 51 48 47 48 49 50 50 49 49 48 47 48 50 54
22 23 24 25 25 26 26 27 27 27 26 25 24 23 22 22 21 22 23 26 28 29 29 29 28 28 27 28 27 26 25 24 24 24 25 24 24 23 23 25 24 22 21 19 17 16 15 17 17 16 14 13 12 12 12 13 15 17 19 20 20 18 16 15 13 13 13 14 15 17 18 18 19 19 18 18 18 20 24 29 33 38 45 51 55 58 61 59 57 54 50 47 46 47 49 50 49 49 48 47 47 48 51
21 22 23 24 24 25 26 26 27 28 28 28 27 26 25 25 24 25 26 28 28 29 29 29 29 29 29 29 29 28 27 27 27 26 26 26 26 25 24 25 24 23 23 22 21 18 16 17 17 16 14 14 14 14 14 14 16 18 21 22 21 19 16 14 13 12 12 14 15 17 18 18 18 18 18 17 17 19 22 27 31 36 42 48 52 56 61 61 60 57 53 49 47 47 49 50 51 50 49 47 47 47 49
20 21 22 22 23 24 24 25 26 27 27 28 29 29 29 28 29 29 30 30 30 29 29 29 29 30 30 30 31 30 29 29 29 28 27 27 27 26 26 25 25 25 26 24 22 19 17 18 19 19 16 16 17 17 15 14 16 19 22 24 23 20 16 14 12 12 13 14 16 17 18 18 18 18 18 17 17 18 20 25 30 35 41 45 50 54 60 62 62 59 56 52 49 48 49 52 53 53 51 49 47 47 47
20 20 21 22 23 23 24 24 25 25 26 27 29 30 31 32 33 33 33 32 32 31 30 30 30 30 30 31 31 31 31 30 30 30 28 28 28 27 26 26 26 25 24 23 21 20 19 21 22 21 18 18 18 18 16 15 16 20 23 24 23 20 16 14 12 12 13 15 17 18 19 18 18 17 17 16 16 17 20 24 29 34 40 43 46 51 57 62 63 61 58 55 52 50 51 54 55 56 54 51 48 47 46
21 21 21 22 23 23 24 24 24 24 25 26 28 30 32 34 35 35 35 35 34 33 32 32 31 31 31 31 31 31 31 31 31 31 30 29 29 28 27 27 26 25 24 23 22 22 23 25 24 22 19 18 18 18 17 17 19 22 25 24 22 19 16 14 12 12 14 16 17 18 18 18 18 17 17 16 16 17 20 23 28 33 38 42 44 48 53 60 63 63 61 58 56 54 53 55 57 57 56 53 51 49 47
22 22 22 23 23 24 24 24 24 24 25 26 28 30 33 34 35 36 37 37 36 36 35 34 34 33 33 32 32 32 32 32 32 32 31 31 30 29 29 28 27 26 26 25 25 26 26 26 25 23 21 19 19 19 19 19 21 23 25 24 22 18 15 13 12 13 15 17 18 18 18 18 18 17 16 16 16 18 21 24 27 32 36 40 42 45 50 57 62 64 63 60 58 56 54 55 56 57 57 56 54 52 50
22 23 23 23 23 24 24 24 24 25 26 27 29 31 33 34 36 37 37 37 38 38 37 37 36 35 35 34 33 33 33 33 33 33 32 32 31 30 29 29 28 28 27 27 27 27 27 27 26 24 23 22 20 20 20 21 22 23 24 24 21 18 15 13 12 13 15 18 19 19 18 18 17 17 16 16 16 18 22 24 27 30 35 38 41 44 47 54 60 63 64 62 60 58 55 54 54 56 58 58 57 56 54
22 22 22 23 23 23 23 23 24 25 26 27 29 32 34 35 36 37 37 37 38 39 39 39 39 38 37 36 35 34 34 34 34 34 33 33 32 31 30 30 29 28 28 27 27 27 27 27 27 26 26 24 22 21 20 21 22 23 24 23 21 19 16 14 13 14 17 19 20 20 19 18 18 17 17 16 16 19 24 25 27 29 32 36 39 42 45 52 57 62 64 63 61 59 56 54 53 55 58 59 59 58 57
21 21 22 22 22 22 22 23 24 25 26 27 30 32 34 35 35 36 37 37 38 39 40 40 40 40 39 39 38 36 36 35 35 34 34 34 33 32 32 31 30 30 29 28 27 27 27 27 27 27 26 25 24 23 22 22 22 23 23 23 21 19 17 16 16 18 20 22 22 22 20 19 18 18 17 17 17 19 24 26 27 28 31 35 38 41 44 50 55 59 62 63 62 61 58 55 54 55 58 60 61 60 58
21 21 22 22 22 22 23 24 25 26 27 29 31 32 33 34 35 35 36 37 38 39 40 41 41 41 41 41 39 39 38 37 36 35 35 34 34 33 33 32 31 31 30 29 28 28 28 28 28 27 27 26 26 25 23 22 22 22 22 22 21 20 19 19 19 21 23 25 25 24 22 21 20 19 18 18 18 20 25 27 28 29 30 33 36 39 43 49 52 55 58 61 63 62 60 57 56 56 59 61 62 61 60